FW6766 Weather Reports


Display with metric or nautical units.
time (UTC)temp
F
wind
direction
speed
MPH
gust
MPH
rain 1hr
in
rain 24hr
in
rain mn
in
humidity
%
barometer
mb
20260903045517 77 0.0 0.0 0.00 0.00 0.00 84 1019.8
20260903044537 77 0.0 0.0 0.00 0.00 0.00 84 1019.7
20260903043517 77 0.0 0.0 0.00 0.00 0.00 84 1019.7
20260903042518 77 0.0 0.0 0.00 0.00 0.00 84 1019.7
20260903041517 77 0.0 0.0 0.00 0.00 0.00 84 1019.7
20260903040517 77 0.0 0.0 0.00 0.00 0.00 83 1019.5
20260903035517 77 0.0 0.0 0.00 0.00 0.00 82 1019.6
20260903034517 78 0.0 0.0 0.00 0.00 0.00 82 1019.6
20260903033537 78 0.0 0.0 0.00 0.00 0.00 82 1019.5
20260903032517 78 0.0 0.0 0.00 0.00 0.00 82 1019.6
20260903031518 78 0.0 0.0 0.00 0.00 0.00 82 1019.7
20260903030517 78 0.0 0.0 0.00 0.00 0.00 81 1019.7
20260903025537 78 0.0 0.0 0.00 0.00 0.00 81 1019.6
20260903024517 78 0.0 0.0 0.00 0.00 0.00 80 1019.5
20260903023517 78 0.0 0.0 0.00 0.00 0.00 80 1019.5
20260903022517 79 0.0 0.0 0.00 0.00 0.00 79 1019.4
20260903021518 79 0.0 0.0 0.00 0.00 0.00 79 1019.3
20260903020517 79 0.0 0.0 0.00 0.00 0.00 77 1019.3
20260903015517 79 0.0 0.0 0.00 0.00 0.00 77 1019.2
20260903014517 79 0.0 0.0 0.00 0.00 0.00 76 1019.1
20260903013517 80 0.0 0.0 0.00 0.00 0.00 76 1019.0
20260903012536 80 0.0 0.0 0.00 0.00 0.00 75 1018.8
20260903011517 80 0.0 0.0 0.00 0.00 0.00 74 1018.7
20260903010518 81 0.0 0.0 0.00 0.00 0.00 74 1018.6
20260903005517 81 0.0 0.0 0.00 0.00 0.00 73 1018.5
20260903004516 81 0.0 0.0 0.00 0.00 0.00 72 1018.4
20260903003516 82 0.0 0.0 0.00 0.00 0.00 72 1018.3
20260903002517 82 0.0 0.0 0.00 0.00 0.00 70 1018.3
20260903001536 83 0.0 0.0 0.00 0.00 0.00 70 1018.2
20260903000516 83 0.0 0.0 0.00 0.00 0.00 68 1018.2
20260902235516 84 0.0 0.0 0.00 0.00 0.00 68 1018.3
20260902234537 85 0.0 0.0 0.00 0.00 0.00 66 1018.2
20260902233517 85 0.0 0.0 0.00 0.00 0.00 65 1018.3
20260902232516 86 0.0 0.0 0.00 0.00 0.00 65 1018.4
20260902231516 87 0.0 0.0 0.00 0.00 0.00 62 1018.4
20260902230516 87 0.0 0.0 0.00 0.00 0.00 61 1018.4
20260902225516 88 0.0 1.0 0.00 0.00 0.00 60 1018.4
20260902224517 89 0.0 1.0 0.00 0.00 0.00 60 1018.6
20260902223537 90 0.0 0.0 0.00 0.00 0.00 60 1018.6
20260902222536 90 0.0 0.0 0.00 0.00 0.00 58 1018.7
20260902221516 91 0.0 2.0 0.00 0.00 0.00 56 1018.6
20260902220516 93 0.0 1.0 0.00 0.00 0.00 53 1018.7
20260902215516 94 0.0 0.0 0.00 0.00 0.00 51 1018.7
20260902214537 94 0.0 1.0 0.00 0.00 0.00 48 1018.8
20260902213516 94 0.0 2.0 0.00 0.00 0.00 46 1018.8
20260902212516 94 0.0 0.0 0.00 0.00 0.00 48 1018.8
20260902211516 95 0.0 2.0 0.00 0.00 0.00 50 1018.9
20260902210516 94 0.0 2.0 0.00 0.00 0.00 48 1018.9
20260902205516 94 0.0 1.0 0.00 0.00 0.00 47 1018.9
20260902204517 94 0.0 2.0 0.00 0.00 0.00 47 1019.0
20260902203516 95 0.0 0.0 0.00 0.00 0.00 48 1019.1
20260902202516 95 0.0 0.0 0.00 0.00 0.00 48 1019.2
20260902201516 95 0.0 0.0 0.00 0.00 0.00 50 1019.4
20260902200516 95 0.0 0.0 0.00 0.00 0.00 49 1019.5
20260902195516 95 0.0 1.0 0.00 0.00 0.00 50 1019.6
20260902194515 95 45 1.0 3.0 0.00 0.00 0.00 50 1019.7
20260902193516 93 0.0 0.0 0.00 0.00 0.00 58 1019.9
20260902192516 93 0.0 0.0 0.00 0.00 0.00 59 1020.0
20260902191515 94 0.0 2.0 0.00 0.00 0.00 54 1020.1
20260902190516 96 0.0 1.0 0.00 0.00 0.00 48 1020.3
20260902185535 96 158 1.0 3.0 0.00 0.00 0.00 47 1020.4
20260902184515 95 0.0 1.0 0.00 0.00 0.00 47 1020.6
20260902183538 94 45 1.0 4.0 0.00 0.00 0.00 49 1020.7
20260902182518 93 0.0 3.0 0.00 0.00 0.00 52 1020.7
20260902181517 91 0.0 3.0 0.00 0.00 0.00 58 1020.7
20260902180517 90 0.0 1.0 0.00 0.00 0.00 62 1020.8
20260902175518 90 0.0 2.0 0.00 0.00 0.00 62 1020.9
20260902174518 91 0.0 1.0 0.00 0.00 0.00 60 1020.9
20260902173517 93 0.0 2.0 0.00 0.00 0.00 54 1021.1
20260902172518 93 0.0 2.0 0.00 0.00 0.00 54 1021.2
20260902171518 92 180 1.0 4.0 0.00 0.00 0.00 56 1021.4
20260902170538 93 23 1.0 4.0 0.00 0.00 0.00 55 1021.6
20260902165517 94 203 1.0 5.0 0.00 0.00 0.00 55 1021.6
20260902164517 93 113 1.0 2.0 0.00 0.00 0.00 57 1021.6
20260902163517 93 0 1.0 4.0 0.00 0.00 0.00 57 1021.6
20260902162517 92 0.0 0.0 0.00 0.00 0.00 58 1021.8
20260902161517 91 0.0 2.0 0.00 0.00 0.00 60 1021.8
20260902160518 91 0.0 2.0 0.00 0.00 0.00 60 1021.8
20260902155517 90 0 2.0 5.0 0.00 0.00 0.00 64 1022.0
20260902154517 89 23 1.0 4.0 0.00 0.00 0.00 61 1021.9
20260902153537 88 248 1.0 3.0 0.00 0.00 0.00 64 1022.0
20260902152517 86 0.0 0.0 0.00 0.00 0.00 70 1022.0
20260902151517 84 0.0 0.0 0.00 0.00 0.00 74 1021.9
20260902150518 83 0.0 0.0 0.00 0.00 0.00 75 1021.8
20260902145537 82 0.0 0.0 0.00 0.00 0.00 75 1021.8
20260902144517 82 0.0 0.0 0.00 0.00 0.00 78 1021.8
20260902143517 81 0.0 0.0 0.00 0.00 0.00 79 1021.7
20260902142517 80 0.0 0.0 0.00 0.00 0.00 82 1021.8
20260902141517 80 0.0 0.0 0.00 0.00 0.00 83 1022.0
20260902140517 79 0.0 0.0 0.00 0.00 0.00 85 1021.8
20260902135517 78 0.0 0.0 0.00 0.00 0.00 89 1021.8
20260902134517 77 0.0 0.0 0.00 0.00 0.00 91 1021.7
20260902133517 77 0.0 0.0 0.00 0.00 0.00 92 1021.8
20260902132517 76 0.0 0.0 0.00 0.00 0.00 93 1021.8
20260902131517 75 0.0 0.0 0.00 0.00 0.00 94 1021.8
20260902130516 75 0.0 0.0 0.00 0.00 0.00 95 1021.7
20260902125516 74 0.0 0.0 0.00 0.00 0.00 96 1021.6
20260902124516 73 0.0 0.0 0.00 0.00 0.00 96 1021.6
20260902123516 73 0.0 0.0 0.00 0.00 0.00 96 1021.7
20260902122517 72 0.0 0.0 0.00 0.00 0.00 96 1021.5
20260902121536 72 0.0 0.0 0.00 0.00 0.00 96 1021.3
20260902120517 72 0.0 0.0 0.00 0.00 0.00 95 1021.0
20260902115516 71 0.0 0.0 0.00 0.00 0.00 95 1020.9
20260902114516 71 0.0 0.0 0.00 0.00 0.00 94 1020.9
20260902113516 71 0.0 0.0 0.00 0.00 0.00 94 1020.8
20260902112536 71 0.0 0.0 0.00 0.00 0.00 94 1020.8
20260902111516 71 0.0 0.0 0.00 0.00 0.00 94 1020.7
20260902110516 71 0.0 0.0 0.00 0.00 0.00 94 1020.6
20260902105517 71 0.0 0.0 0.00 0.00 0.00 94 1020.8
20260902104637 71 0.0 0.0 0.00 0.00 0.00 94 1020.7
20260902103516 71 0.0 0.0 0.00 0.00 0.00 94 1020.6
20260902102516 71 0.0 0.0 0.00 0.00 0.00 94 1020.6
20260902101516 72 0.0 0.0 0.00 0.00 0.00 94 1020.6
20260902100516 72 0.0 0.0 0.00 0.00 0.00 94 1020.7
20260902095517 72 0.0 0.0 0.00 0.00 0.00 94 1020.6
20260902094516 72 0.0 0.0 0.00 0.00 0.00 94 1020.5
20260902093516 72 0.0 0.0 0.00 0.00 0.00 93 1020.4
20260902092516 72 0.0 0.0 0.00 0.00 0.00 93 1020.4
20260902091516 72 0.0 0.0 0.00 0.00 0.00 94 1020.3
20260902090536 72 0.0 0.0 0.00 0.00 0.00 93 1020.3
20260902085515 72 0.0 0.0 0.00 0.00 0.00 93 1020.1
20260902084537 72 0.0 0.0 0.00 0.00 0.00 93 1020.0
20260902083516 72 0.0 0.0 0.00 0.00 0.00 93 1020.0
20260902082515 72 0.0 0.0 0.00 0.00 0.00 92 1020.0
20260902081515 72 0.0 0.0 0.00 0.00 0.00 92 1019.8
20260902080515 72 0.0 0.0 0.00 0.00 0.00 92 1019.9
20260902075516 73 0.0 0.0 0.00 0.00 0.00 92 1019.9
20260902074516 73 0.0 0.0 0.00 0.00 0.00 92 1019.9
20260902073516 73 0.0 0.0 0.00 0.00 0.00 91 1019.9
20260902072535 73 0.0 0.0 0.00 0.00 0.00 91 1020.0
20260902071556 73 0.0 0.0 0.00 0.00 0.00 91 1020.0
20260902070515 73 0.0 0.0 0.00 0.00 0.00 91 1020.1
20260902065516 73 0.0 0.0 0.00 0.00 0.00 91 1020.2
20260902064516 73 0.0 0.0 0.00 0.00 0.00 91 1020.1
20260902063516 73 0.0 0.0 0.00 0.00 0.00 90 1020.1
20260902062518 73 0.0 0.0 0.00 0.00 0.00 90 1020.2
20260902061517 73 0.0 0.0 0.00 0.00 0.00 90 1020.3
20260902060517 73 0.0 0.0 0.00 0.00 0.00 90 1020.4
20260902055517 74 0.0 0.0 0.00 0.00 0.00 90 1020.5
20260902054517 74 0.0 0.0 0.00 0.00 0.00 90 1020.4
20260902053537 74 0.0 0.0 0.00 0.00 0.00 89 1020.5
20260902052518 74 0.0 0.0 0.00 0.00 0.00 89 1020.5
20260902051517 74 0.0 0.0 0.00 0.00 0.00 89 1020.6
20260902050517 74 0.0 0.0 0.00 0.00 0.00 88 1020.6